User: anonymous
Location: Albany
(35.0000°S, 118.0000°E)
Time: 02:32:59
(UTC-04:00)
Language:

Cosmos 1758 Rocket - Orbit

View from above orbital plane
View from above orbital plane
View from above satellite
View from above satellite

Ground track
Ground track

The orbit data is extracted from the following two-line orbital elements,

1 16792U 86046B   14213.15385236  .00000268  00000-0  30149-4 0  5288
2 16792 082.4838 111.0971 0025587 150.2322 322.7447 14.82589790519111
Epoch (UTC): 01 August 2014 03:41:32
Eccentricity: 0.0025587
inclination: 82.4838°
perigee height: 603 km
apogee height: 639 km
right ascension of ascending node: 111.0971°
argument of perigee: 150.2322°
revolutions per day: 14.82589790
mean anomaly at epoch: 322.7447°
orbit number at epoch: 51911

The dashed part of the orbit path shows where the satellite is in the earth's shadow,  

DLR